This is the latest recevied weather packets stored in our database for station/object WX5HOT. If no packets are shown the sender has not sent any weather packets the latest 10 day(s).
| Time | Temp. | Humidity | Pressure | Rain* | Wind** | Luminosity | Snow |
|---|---|---|---|---|---|---|---|
| 1777417762 | 21.67° C | 99% | 1062.3 hPa | 0 mm | - | 1 W/m² | - |
| 1777417457 | 21.67° C | 99% | 1062.1 hPa | 0 mm | - | 2 W/m² | - |
| 1777417154 | 21.67° C | 99% | 1061.5 hPa | 0 mm | - | 2 W/m² | - |
| 1777416849 | 21.67° C | 99% | 1060.6 hPa | 0 mm | - | 6 W/m² | - |
| 1777416545 | 21.67° C | 99% | 1060.6 hPa | 1.78 mm | - | 7 W/m² | - |
| 1777416241 | 21.67° C | 99% | 1061 hPa | 3.05 mm | - | 8 W/m² | - |
| 1777415941 | 21.67° C | 99% | 1061.5 hPa | 3.05 mm | - | 4 W/m² | - |
| 1777415636 | 21.67° C | 99% | 1061.3 hPa | 1.78 mm | - | 3 W/m² | - |
| 1777415332 | 21.67° C | 99% | 1060.9 hPa | 0 mm | - | 5 W/m² | - |
| 1777415027 | 21.67° C | 99% | 1061.2 hPa | 0 mm | - | 6 W/m² | - |
| 1777414726 | 21.67° C | 99% | 1061.4 hPa | 0 mm | - | 4 W/m² | - |
| 1777414423 | 21.67° C | 99% | 1061.3 hPa | 0 mm | - | 6 W/m² | - |
| 1777414122 | 21.67° C | 99% | 1061.4 hPa | 0 mm | - | 5 W/m² | - |
| 1777413818 | 21.67° C | 99% | 1061.6 hPa | 0 mm | - | 12 W/m² | - |
| 1777413513 | 21.67° C | 99% | 1061.3 hPa | 0 mm | - | 5 W/m² | - |
| 1777413210 | 21.67° C | 99% | 1061 hPa | 0 mm | - | 12 W/m² | - |
| 1777412905 | 21.67° C | 99% | 1061.4 hPa | 0 mm | - | 9 W/m² | - |
| 1777412605 | 21.67° C | 99% | 1061.5 hPa | 0 mm | - | 12 W/m² | - |
| 1777412301 | 21.67° C | 99% | 1061.3 hPa | 0 mm | - | 14 W/m² | - |
| 1777411997 | 21.67° C | 98% | 1061.2 hPa | 0 mm | - | 13 W/m² | - |
| 1777411696 | 21.67° C | 98% | 1061.4 hPa | 0 mm | - | 20 W/m² | - |
| 1777411392 | 21.67° C | 98% | 1061.7 hPa | 0 mm | - | 18 W/m² | - |
| 1777411092 | 21.67° C | 98% | 1061.8 hPa | 0 mm | - | 26 W/m² | - |
| 1777410792 | 21.67° C | 97% | 1061.6 hPa | 0 mm | - | 21 W/m² | - |
| 1777410490 | 21.67° C | 97% | 1061.7 hPa | 0 mm | - | 36 W/m² | - |
* Rain latest hour (hover to see other rain measurements)
** Current wind speed in m/s (hover to see current wind gust speed)